close
Agen Tangkas Terpercaya'
close
Agen tangkas Terpercaya'

Jackpot

Texas Poker Multi Jackpot System

Kini Telah hadir Jackpot SUPER ROYAL FLUSH

Kini Telah hadir Jackpot 2000 (khusus table VIP keatas).

Ikutilah global jackpot yang tersedia di system kami, dengan system jackpot terbaru dan pertama di indonesia, anda dapat membeli jackpot dengan harga 100 rupiah saja dan menangkan hadiahnya hingga puluhan juta rupiah.

Jackpot bukanlah suatu keharusan untuk dibeli, namun kami memberikan suatu fitur tambahan untuk member tercinta dari www.pokerbintang.xyz.

Terdapat tiga pilihan harga jackpot yang bisa anda beli yaitu :100,500,1000 dan 2000(khusus table VIP Keatas) rupiah.

Hadiah dari Multi jackpot system www.pokerbintang.xyz

  1. full house x 10 harga jackpot yang anda beli.
      (contoh:anda membeli 1000 maka:1000 X10 = 10.000)
  2. four of kind x 250 harga jackpot yang anda beli
      (contoh:anda membeli 1000 maka:1000 X250 = 250.000)
  3. Straight flush x 1200
      (contoh:anda membeli 1000 maka:1000 X1200 = 1.200.000)
  4. Royal flush x 10000 harga jackpot yang anda beli
      (contoh:anda membeli 1000 maka:1000 X10000 = 10.000.000)
  5. SUPER ROYAL FLUSH x 30000 harga jackpot yang anda beli
      (contoh:anda membeli 1000 maka:1000 X30000 = 30.000.000)

Kondisi kartu

  1. full house adalah kondisi kartu dimana kartu anda dan kartu tengah dengan total 7 kartu bisa mendapatkan nilai 5 kartu dengan kombinasi 1 tris(three of kind) dan 1 pair, contoh 3 kartu 10 dan 2 kartu 5
  2. Four of kind adalah kondisi kartu dimana kartu anda dan kartu tengah dengan total 7 kartu bisa mendapatkan nilai 5 kartu dengan kombinasi 4 kartu yang sama jumlah dan 1 kartu apapun juga contoh anda mendapatkan 4 buah kartu angka 3 dan 1 kartu apapun.
  3. Staright flush adalah kondisi kartu dimana kartu anda dan kartu tengah dengan total 7 kartu bisa mendapatkan nilai 5 kartu dengan kombinasi seri / staright dengan kembang yang sama contoh : urutan kartu dari angka 5, 6, 7, 8 , 9 10 dengan kembang yg sama misalnya as hati
  4. Royal flush adalah kondisi kartu dimana kartu anda dan kartu tengah dengan total 7 kartu bisa mendapatkan nilai 5 kartu dengan kombinasi seri / staright dengan kembang yang sama tetapi kartu tersebut haruslah dimulai dari 10. contoh 10, Queen, Jack, King dan aces dengan kembang yang sama
  5. Super Royal flush adalah kondisi kartu dimana Kedua kartu anda digabung dengan 3 kartu pertama meja haruslah royal flush. contoh kartu anda 10,Queen kembang sama dan 3 kartu pertama meja adalah Jack, King dan aces dengan kembang yang sama

Demikian adalah penjelasan dari Multi Jackpot www.pokerbintang.xyz terima kasih dan selamat bermain salam hoki dari kami

Texas Poker Jackpot Winner

TOP SUPER ROYAL FLUSH
No.TanggalNamaPriceWin
121/09 14:11ROYALJOZZSuper Royal flush60,000,000
221/09 13:43BA_ATIYOSuper Royal flush6,000,000
321/09 12:23B8EKCBJIYMSuper Royal flush3,000,000
421/09 08:32TUPO25Super Royal flush3,000,000
521/09 07:21SLOME898Super Royal flush30,000,000
TOP ROYAL FLUSH
No.TanggalNamaPriceWin
122/09 01:00IJ4HELIS4Royal flush2,000,000
222/09 00:53TAWON127Royal flush2,000,000
322/09 00:52PENG55Royal flush2,000,000
422/09 00:44TADAH3Royal flush20,000,000
522/09 00:38AALLIINN88Royal flush1,000,000
TOP STRAIGHT FLUSH
No.TanggalNamaPriceWin
122/09 01:11DHY23Straight Flush240,000
222/09 01:08BUSINESS99Straight Flush2,400,000
322/09 01:08FINO303Straight Flush2,400,000
422/09 01:07PIKACHU417Straight Flush120,000
522/09 01:07LOBUR75Straight Flush240,000
LATEST JACKPOT
No.TanggalNamaPriceWin
122/09 01:12SARJI98Full House2,000
222/09 01:12B2GCVXOW7LFull House2,000
322/09 01:12SU_TORFull House20,000
422/09 01:12KASIHAN69Four Of A Kind250,000
522/09 01:12HOK17ERUSFull House5,000
622/09 01:12MAHOU20Full House5,000
722/09 01:12SAYEM08Full House5,000
822/09 01:12LOVEE4Full House5,000
922/09 01:12SALMA2222Full House2,000
1022/09 01:12BELATOJAYAFull House2,000
1122/09 01:12JPFAIR01Full House5,000
1222/09 01:12BREKELE887Full House2,000
1322/09 01:12BHAKTI9966Full House2,000
1422/09 01:12KIJOTMAUTFull House20,000
1522/09 01:12MARVEL_999Full House5,000
1622/09 01:12EKKYBAJA72Full House2,000
1722/09 01:12BCF1A5ECFull House1,000
1822/09 01:12JPBPFKKLNTFull House5,000
1922/09 01:12P6J2JTHHMUFull House5,000
2022/09 01:12MFM_RYL7Full House2,000
2122/09 01:12CONZULFull House5,000
2222/09 01:12MBKW47Full House5,000
2322/09 01:12HAIR003Full House1,000
2422/09 01:12B69696Full House2,000
2522/09 01:12KORKET13Full House2,000
2622/09 01:12MAMPAS88Full House10,000
2722/09 01:12CENGOS1212Full House5,000
2822/09 01:12C455C57FFour Of A Kind25,000
2922/09 01:12DWBTAKPO44Full House5,000
3022/09 01:12Z4LFAFull House10,000
3122/09 01:12SAPU_IJUKFull House2,000
3222/09 01:12HITAMDOP40Full House2,000
3322/09 01:12CUTCUT08Full House5,000
3422/09 01:12CAR378Full House5,000
3522/09 01:12LIOCOOL339Full House2,000
3622/09 01:12EBET85Four Of A Kind250,000
3722/09 01:12METADONFull House1,000
3822/09 01:11APALAGI_17Full House1,000
3922/09 01:11R7FV9UQ76NFull House5,000
4022/09 01:11PEUYEUM46Full House5,000
4122/09 01:11L3_P1TFull House5,000
4222/09 01:11RIZALEPENDFull House2,000
4322/09 01:11EDHOOW211Full House2,000
4422/09 01:11T0RT0RFull House10,000
4522/09 01:11ERUL2305Full House5,000
4622/09 01:11EPO88Full House2,000
4722/09 01:11JEKPOT13Full House5,000
4822/09 01:11GINJALBIRUFull House5,000
4922/09 01:11BLALANG62Full House1,000
5022/09 01:11MANTAN88Full House2,000

Domino Multi Jackpot System

Ikutilah global jackpot yang tersedia di system kami, dengan system jackpot terbaru dan pertama di indonesia, anda dapat membeli jackpot dengan harga 100 rupiah saja dan menangkan hadiahnya hingga puluhan juta rupiah.

Jackpot bukanlah suatu keharusan untuk dibeli, namun kami memberikan suatu fitur tambahan untuk member tercinta dari www.pokerbintang.xyz.

Terdapat tiga pilihan harga jackpot yang bisa anda beli yaitu :100,500 dan 1000 rupiah.

Hadiah dari Multi jackpot system www.pokerbintang.xyz

  1. Murni Kecil x 50 harga jackpot yang anda beli.
      (contoh:anda membeli 1000 maka:1000 X 50 = 50.000)
  2. Murni Besar x 50 harga jackpot yang anda beli
      (contoh:anda membeli 1000 maka:1000 X 50 = 50.000)
  3. BALAK x 100 harga jackpot yang anda beli
      (contoh:anda membeli 1000 maka:1000 X 100 = 100.000)
  4. ENAM DEWA x 6666 harga jackpot yang anda beli
      (contoh:anda membeli 1000 maka:1000 X 6666 = 6.666.000)

Demikian adalah penjelasan dari Multi Jackpot www.pokerbintang.xyz terima kasih dan selamat bermain salam hoki dari kami

Domino Jackpot Winner

TOP ENAM DEWA
No.TanggalNamaPriceWin
122/09 01:09WISMA92murni enam3,333,000
222/09 01:08ABAY888888murni enam3,333,000
322/09 00:44AMSEO99murni enam3,333,000
422/09 00:43DYCK22murni enam6,666,000
521/09 23:35TEMPE444murni enam666,600
TOP BALAK
No.TanggalNamaPriceWin
122/09 01:09FRANS48balak100,000
222/09 01:09ED473B6Dbalak100,000
322/09 01:06ALDOSANJAYbalak50,000
422/09 01:04GOKIL1998balak50,000
522/09 01:04PUNDEN995balak100,000
LATEST JACKPOT
No.TanggalNamaPriceWin
122/09 01:12ASAADmurni besar50,000
222/09 01:10JEFF1603murni kecil50,000
322/09 01:10MERCIZAAKmurni besar50,000
422/09 01:10GAJAH1THNmurni besar5,000
522/09 01:09WISMA92murni enam3,333,000
622/09 01:09FRANS48balak100,000
722/09 01:09ED473B6Dbalak100,000
822/09 01:08MARYANTO70murni besar50,000
922/09 01:08PIT99murni kecil50,000
1022/09 01:08ABAY888888murni enam3,333,000
1122/09 01:07DRAGON75murni besar5,000
1222/09 01:07ASHCOMmurni kecil25,000
1322/09 01:07AGENT88556murni kecil25,000
1422/09 01:07OPUNG77murni besar25,000
1522/09 01:07ACIL66murni besar50,000
1622/09 01:06J1D4TLOmurni besar50,000
1722/09 01:06ALDOSANJAYbalak50,000
1822/09 01:05ANDRISMAlucky9910,000
1922/09 01:04DARAHKU99lucky9950,000
2022/09 01:04IMELDA727murni kecil50,000
2122/09 01:04PREI99murni kecil25,000
2222/09 01:04GOKIL1998balak50,000
2322/09 01:04RICHARD76murni kecil5,000
2422/09 01:04PUNDEN995balak100,000
2522/09 01:03QQANDSURlucky992,500
2622/09 01:02GEGER057murni kecil50,000
2722/09 01:01ITF53TZHWVmurni kecil50,000
2822/09 01:01TMN07murni besar50,000
2922/09 01:00PEMBELImurni kecil50,000
3022/09 01:00JAY48055murni besar50,000
3122/09 01:00CMD75911balak100,000
3222/09 00:59ANDROYYYbalak10,000
3322/09 00:59ESPOY99balak100,000
3422/09 00:59STYLE930murni besar50,000
3522/09 00:59TAUFIQ112murni besar50,000
3622/09 00:59SEPTIAN009murni kecil5,000
3722/09 00:59DWTGEPENGSmurni besar5,000
3822/09 00:58HA24murni besar50,000
3922/09 00:58PETIRR88balak50,000
4022/09 00:57NAGA22murni besar5,000
4122/09 00:57AGENT88556lucky9910,000
4222/09 00:57HAER333murni besar50,000
4322/09 00:57CALUNG11murni kecil50,000
4422/09 00:56CHA1303murni besar50,000
4522/09 00:56AILYN12lucky9950,000
4622/09 00:56WARDHANA99murni besar25,000
4722/09 00:56SURANDILbalak100,000
4822/09 00:55BERDARAmurni besar25,000
4922/09 00:55SOKIPUNAImurni kecil50,000
5022/09 00:55HAER333murni besar50,000

Ceme Multi Jackpot System

Jackpot dilihat dari gabungan kartu pemain dengan kartu bandar. Bandar harus membeli jackpot sebanyak jumlah player yang sedang duduk. Sebagai contoh bila terdapat 3 pemain duduk bermain, dan bandar memutuskan untuk membeli jackpot Rp 1.000, maka pada periode tersebut bandar akan membeli jackpot sebanyak 3xRp1.000 = Rp3.000.

Jackpot bukanlah suatu keharusan untuk dibeli, namun kami memberikan suatu fitur tambahan untuk member tercinta dari www.pokerbintang.xyz.

Terdapat tiga pilihan harga jackpot yang bisa anda beli yaitu :100,500 dan 1000 rupiah.

Hadiah dari Multi jackpot system www.pokerbintang.xyz

  1. Murni Kecil x 50 harga jackpot yang anda beli.
      (contoh:anda membeli 1000 maka:1000 X 50 = 50.000)
  2. Murni Besar x 50 harga jackpot yang anda beli
      (contoh:anda membeli 1000 maka:1000 X 50 = 50.000)
  3. BALAK x 200 harga jackpot yang anda beli
      (contoh:anda membeli 1000 maka:1000 X 200 = 200.000)
  4. ENAM DEWA x 6666 harga jackpot yang anda beli
      (contoh:anda membeli 1000 maka:1000 X 6666 = 6.666.000)

Demikian adalah penjelasan dari Multi Jackpot www.pokerbintang.xyz terima kasih dan selamat bermain salam hoki dari kami

Ceme Jackpot Winner

TOP ENAM DEWA
No.TanggalNamaPriceWin
122/09 01:12MRET27murni enam3,333,000
222/09 00:58MARZO11murni enam6,666,000
322/09 00:58FENGLIE12murni enam666,600
422/09 00:49TINIQU9murni enam6,666,000
522/09 00:41KINGQ9murni enam6,666,000
TOP BALAK
No.TanggalNamaPriceWin
122/09 01:11ASLIENbalak20,000
222/09 01:10DENGGEL99balak200,000
322/09 01:10EMENG666balak200,000
422/09 01:10EDWARD64balak20,000
522/09 01:09PUTRIPULSAbalak200,000
LATEST JACKPOT
No.TanggalNamaPriceWin
122/09 01:12ZANLE87murni besar5,000
222/09 01:12JAROOT28murni besar25,000
322/09 01:12MRET27murni enam3,333,000
422/09 01:12DUDUNG9595murni besar50,000
522/09 01:12MARBUN95murni besar5,000
622/09 01:12BUT0N99murni kecil50,000
722/09 01:12C5D85756murni kecil5,000
822/09 01:12DEWAWD99murni besar50,000
922/09 01:12ALBYRAYA17murni besar50,000
1022/09 01:12GOBOK0027murni kecil25,000
1122/09 01:12BESAR20murni besar25,000
1222/09 01:11NOBLESSEmurni kecil50,000
1322/09 01:11GADISKU11murni kecil50,000
1422/09 01:11PRO2330murni kecil50,000
1522/09 01:11LUTFH1murni kecil50,000
1622/09 01:11DION042murni besar50,000
1722/09 01:11ASLIENbalak20,000
1822/09 01:11METALLOVEmurni kecil50,000
1922/09 01:11MRTIYANmurni kecil25,000
2022/09 01:11DAKKENOmurni besar50,000
2122/09 01:11DAKKENOmurni besar50,000
2222/09 01:11KOD0K11murni besar25,000
2322/09 01:11HANTAM23murni kecil50,000
2422/09 01:11MOHSEHmurni kecil5,000
2522/09 01:11EDI99099_murni kecil50,000
2622/09 01:11J_KALAmurni kecil50,000
2722/09 01:11SANGGADITYmurni besar50,000
2822/09 01:10ARSAPATI19murni kecil25,000
2922/09 01:10DENGGEL99balak200,000
3022/09 01:10TEGUH140murni kecil25,000
3122/09 01:10AHOK9999murni kecil50,000
3222/09 01:10EMENG666balak200,000
3322/09 01:10PANTAR84murni besar50,000
3422/09 01:10TEUKU7murni besar25,000
3522/09 01:10PANTAR84murni besar50,000
3622/09 01:10BANGRAHMADmurni besar50,000
3722/09 01:10APUNKSmurni kecil5,000
3822/09 01:10DANIGI1010murni kecil5,000
3922/09 01:10KIMBHBAmurni kecil50,000
4022/09 01:10MASSINYOmurni kecil50,000
4122/09 01:10EDWARD64balak20,000
4222/09 01:10CAPUT12murni kecil5,000
4322/09 01:10WOEWOE501murni kecil25,000
4422/09 01:10GEEGEEmurni besar5,000
4522/09 01:09EMENG666murni kecil50,000
4622/09 01:09GHOFURQQmurni kecil5,000
4722/09 01:09EMENG666murni kecil50,000
4822/09 01:09GILANGIRDAmurni kecil50,000
4922/09 01:09ROJALI351murni kecil5,000
5022/09 01:09M4ESTROmurni besar25,000